Location: Ahausen
(50.4985°N, 8.2722°E)
Time: 06:44:10
(UTC+00:00)

O/OREOS (USA 219) - Visible Passes

Search period start: 28 June 2022 00:00
Search period end: 08 July 2022 00:00
Orbit: 621 x 646 km, 72.0° (Epoch: 22 May)

Date Brightness Start Highest point End Pass type
(mag) Time Alt. Az. Time Alt. Az. Time Alt. Az.
28 Jun ? 01:19:33 10° NW 01:23:29 28° WSW 01:26:01 17° SSW visible
28 Jun ? 22:23:15 10° N 22:26:15 17° NE 22:29:14 10° E visible
29 Jun ? 00:01:46 10° NNW 00:06:25 82° ENE 00:09:40 19° SSE visible
29 Jun ? 01:42:41 10° WNW 01:45:11 15° W 01:47:04 12° SW visible
29 Jun ? 22:44:48 10° N 22:48:45 27° NE 22:52:41 10° ESE visible
30 Jun ? 00:23:57 10° NW 00:28:25 51° WSW 00:30:47 26° S visible
30 Jun ? 21:28:55 10° NNE 21:30:28 11° NNE 21:32:01 10° NE visible
30 Jun ? 23:06:36 10° NNW 23:11:05 47° NE 23:14:33 16° SE visible
01 Jul ? 00:46:27 10° NW 00:50:15 26° WSW 00:51:58 21° SW visible
01 Jul ? 21:49:58 10° N 21:53:08 18° NE 21:56:17 10° E visible
01 Jul ? 23:28:35 10° NNW 23:33:14 89° ENE 23:35:47 26° SSE visible
02 Jul ? 01:09:47 10° WNW 01:11:56 13° W 01:13:12 12° WSW visible
02 Jul ? 22:11:34 10° N 22:15:36 29° NE 22:19:38 10° ESE visible
02 Jul ? 23:50:48 10° NW 23:55:13 46° WSW 23:57:05 29° SSW visible
03 Jul ? 20:55:30 10° N 20:57:23 12° NE 20:59:15 10° ENE visible
03 Jul ? 22:33:23 10° NNW 22:37:55 51° ENE 22:41:00 19° SE visible
04 Jul ? 00:13:21 10° NW 00:17:02 24° WSW 00:18:25 20° SW visible
04 Jul ? 21:16:41 10° N 21:20:00 19° NE 21:23:19 10° E visible
04 Jul ? 22:55:24 10° NNW 23:00:02 84° WSW 23:02:22 29° SSE visible
05 Jul ? 00:37:00 10° WNW 00:38:40 12° W 00:39:47 11° WSW visible
05 Jul ? 21:38:20 10° NNW 21:42:28 31° NE 21:46:21 11° ESE visible
05 Jul ? 23:17:39 10° NW 23:22:00 42° WSW 23:23:47 29° SSW visible
06 Jul ? 20:22:08 10° N 20:24:17 13° NE 20:26:25 10° ENE visible
06 Jul ? 22:00:11 10° NNW 22:04:45 56° ENE 22:07:48 20° SE visible
06 Jul ? 23:40:18 10° NW 23:43:48 22° WSW 23:45:14 19° SW visible
07 Jul ? 20:43:26 10° N 20:46:53 20° NE 20:50:20 10° E visible
07 Jul ? 22:22:13 10° NNW 22:26:51 76° WSW 22:29:17 28° SSE visible
